When you browse on this site, cookies collect data to enhance your experience and personalize the content and advertising you see.
Visit our Privacy Policy to learn more. By continuing to use the site, you agree to this use of cookies and data.
  • Em Portugal
  • Lista de países
  • Para 7 dias
  • Temperatura da água
  • Mapas de satélite
  • Mapa do tempo
  • Widgets de tempo
  • user-avatar
    Iniciar Sessão

    Previsão horária em Kabul

    Hoje, 22 Julho, Segunda-feira

    Tempo Temperatura Precipitação Vento Pressão Humidade
    00:00 +24°C° 0 mm 1 m/s 609 mmHg 34%
    01:00 +23°C° 0 mm 1 m/s 609 mmHg 35%
    02:00 +22°C° 0 mm 1 m/s 608 mmHg 36%
    03:00 +22°C° 0 mm 1 m/s 608 mmHg 35%
    04:00 +21°C° 0 mm 1 m/s 608 mmHg 34%
    05:00 +21°C° 0 mm 1 m/s 608 mmHg 34%
    06:00 +24°C° 0 mm 1 m/s 609 mmHg 29%
    07:00 +26°C° 0 mm 1 m/s 610 mmHg 24%
    08:00 +28°C° 0 mm 1 m/s 612 mmHg 19%
    09:00 +30°C° 0 mm 1 m/s 612 mmHg 17%
    10:00 +31°C° 0 mm 2 m/s 612 mmHg 15%
    11:00 +34°C° 0 mm 2 m/s 612 mmHg 13%
    12:00 +35°C° 0 mm 3 m/s 612 mmHg 12%
    13:00 +36°C° 0 mm 4 m/s 612 mmHg 11%
    14:00 +37°C° 0 mm 5 m/s 612 mmHg 11%
    15:00 +37°C° 0 mm 5 m/s 612 mmHg 11%
    16:00 +38°C° 0 mm 6 m/s 612 mmHg 12%
    17:00 +38°C° 0 mm 6 m/s 611 mmHg 12%
    18:00 +34°C° 0 mm 5 m/s 611 mmHg 16%
    19:00 +32°C° 0 mm 5 m/s 610 mmHg 19%
    20:00 +29°C° 0 mm 4 m/s 610 mmHg 23%
    21:00 +28°C° 0 mm 3 m/s 610 mmHg 30%
    22:00 +27°C° 0 mm 2 m/s 610 mmHg 37%
    23:00 +25°C° 0 mm 1 m/s 609 mmHg 44%

    Amanhã, 23 Julho, Terça-feira

    Tempo Temperatura Precipitação Vento Pressão Humidade
    00:00 +24°C° 0 mm 1 m/s 609 mmHg 45%
    01:00 +24°C° 0 mm 1 m/s 609 mmHg 46%
    02:00 +21°C° 0 mm 0 m/s 608 mmHg 47%
    03:00 +20°C° 0 mm 0 m/s 608 mmHg 47%
    04:00 +20°C° 0 mm 0 m/s 608 mmHg 47%
    05:00 +19°C° 0 mm 0 m/s 607 mmHg 46%
    06:00 +21°C° 0 mm 0 m/s 608 mmHg 40%
    07:00 +23°C° 0 mm 0 m/s 609 mmHg 34%
    08:00 +26°C° 0 mm 0 m/s 610 mmHg 28%
    09:00 +29°C° 0 mm 1 m/s 611 mmHg 24%
    10:00 +31°C° 0 mm 1 m/s 611 mmHg 20%
    11:00 +32°C° 0 mm 1 m/s 611 mmHg 16%
    12:00 +34°C° 0 mm 1 m/s 611 mmHg 15%
    13:00 +36°C° 0 mm 2 m/s 611 mmHg 13%
    14:00 +37°C° 0 mm 2 m/s 611 mmHg 12%
    15:00 +37°C° 0 mm 3 m/s 611 mmHg 11%
    16:00 +38°C° 0 mm 3 m/s 611 mmHg 11%
    17:00 +38°C° 0 mm 4 m/s 611 mmHg 11%
    18:00 +36°C° 0 mm 3 m/s 610 mmHg 14%
    19:00 +33°C° 0 mm 3 m/s 609 mmHg 17%
    20:00 +30°C° 0 mm 3 m/s 609 mmHg 20%
    21:00 +29°C° 0 mm 2 m/s 609 mmHg 23%
    22:00 +27°C° 0 mm 2 m/s 609 mmHg 25%
    23:00 +26°C° 0 mm 1 m/s 608 mmHg 28%

    Depois de amanhã, 24 Julho, Quarta-feira

    Tempo Temperatura Precipitação Vento Pressão Humidade
    00:00 +25°C° 0 mm 1 m/s 608 mmHg 28%
    01:00 +25°C° 0 mm 1 m/s 607 mmHg 29%
    02:00 +24°C° 0 mm 1 m/s 607 mmHg 29%
    03:00 +23°C° 0 mm 1 m/s 607 mmHg 29%
    04:00 +23°C° 0 mm 1 m/s 606 mmHg 29%
    05:00 +20°C° 0 mm 0 m/s 606 mmHg 29%
    06:00 +24°C° 0 mm 1 m/s 607 mmHg 25%
    07:00 +27°C° 0 mm 1 m/s 608 mmHg 21%
    08:00 +29°C° 0 mm 1 m/s 610 mmHg 17%
    09:00 +31°C° 0 mm 1 m/s 610 mmHg 15%
    10:00 +32°C° 0 mm 1 m/s 610 mmHg 13%
    11:00 +35°C° 0 mm 2 m/s 610 mmHg 11%
    12:00 +36°C° 0 mm 2 m/s 610 mmHg 10%
    13:00 +37°C° 0 mm 2 m/s 610 mmHg 9%
    14:00 +38°C° 0 mm 2 m/s 610 mmHg 8%
    15:00 +38°C° 0 mm 3 m/s 610 mmHg 8%
    16:00 +38°C° 0 mm 4 m/s 610 mmHg 8%
    17:00 +39°C° 0 mm 5 m/s 609 mmHg 7%
    18:00 +36°C° 0 mm 4 m/s 609 mmHg 9%
    19:00 +33°C° 0 mm 4 m/s 608 mmHg 11%
    20:00 +30°C° 0 mm 3 m/s 608 mmHg 13%
    21:00 +29°C° 0 mm 3 m/s 607 mmHg 15%
    22:00 +27°C° 0 mm 2 m/s 607 mmHg 18%
    23:00 +26°C° 0 mm 2 m/s 607 mmHg 20%

    25 Julho, Quinta-feira

    Tempo Temperatura Precipitação Vento Pressão Humidade
    00:00 +25°C° 0 mm 1 m/s 607 mmHg 21%
    01:00 +24°C° 0 mm 1 m/s 606 mmHg 22%
    02:00 +23°C° 0 mm 1 m/s 606 mmHg 24%
    03:00 +23°C° 0 mm 1 m/s 606 mmHg 25%
    04:00 +22°C° 0 mm 1 m/s 606 mmHg 26%
    05:00 +21°C° 0 mm 1 m/s 605 mmHg 27%
    06:00 +24°C° 0 mm 1 m/s 606 mmHg 23%
    07:00 +26°C° 0 mm 1 m/s 608 mmHg 19%
    08:00 +28°C° 0 mm 1 m/s 609 mmHg 15%
    09:00 +30°C° 0 mm 1 m/s 609 mmHg 14%
    10:00 +32°C° 0 mm 1 m/s 610 mmHg 12%
    11:00 +34°C° 0 mm 2 m/s 610 mmHg 10%
    12:00 +36°C° 0 mm 2 m/s 610 mmHg 9%
    13:00 +37°C° 0 mm 2 m/s 610 mmHg 8%
    14:00 +38°C° 0 mm 2 m/s 610 mmHg 7%
    15:00 +38°C° 0 mm 2 m/s 609 mmHg 7%
    16:00 +38°C° 0 mm 3 m/s 609 mmHg 7%
    17:00 +38°C° 0 mm 3 m/s 609 mmHg 7%
    18:00 +36°C° 0 mm 3 m/s 608 mmHg 10%
    19:00 +33°C° 0 mm 3 m/s 608 mmHg 13%
    20:00 +30°C° 0 mm 4 m/s 607 mmHg 16%
    21:00 +29°C° 0 mm 3 m/s 607 mmHg 22%
    22:00 +28°C° 0 mm 3 m/s 607 mmHg 28%
    23:00 +26°C° 0 mm 2 m/s 607 mmHg 34%

    26 Julho, Sexta-feira

    Tempo Temperatura Precipitação Vento Pressão Humidade
    00:00 +25°C° 0 mm 2 m/s 607 mmHg 35%
    01:00 +25°C° 0 mm 2 m/s 606 mmHg 35%
    02:00 +24°C° 0 mm 1 m/s 606 mmHg 36%
    03:00 +23°C° 0 mm 1 m/s 605 mmHg 38%
    04:00 +22°C° 0 mm 1 m/s 605 mmHg 39%
    05:00 +21°C° 0 mm 1 m/s 605 mmHg 40%
    06:00 +23°C° 0 mm 1 m/s 606 mmHg 35%
    07:00 +26°C° 0 mm 1 m/s 607 mmHg 30%
    08:00 +28°C° 0 mm 1 m/s 608 mmHg 25%
    09:00 +29°C° 0 mm 1 m/s 608 mmHg 21%
    10:00 +31°C° 0 mm 1 m/s 609 mmHg 17%
    11:00 +34°C° 0 mm 2 m/s 609 mmHg 14%
    12:00 +35°C° 0 mm 2 m/s 609 mmHg 13%
    13:00 +36°C° 0 mm 3 m/s 609 mmHg 13%
    14:00 +37°C° 0 mm 3 m/s 609 mmHg 12%
    15:00 +36°C° 0 mm 4 m/s 609 mmHg 16%
    16:00 +36°C° 0 mm 5 m/s 609 mmHg 20%
    17:00 +35°C° 0 mm 5 m/s 609 mmHg 24%
    18:00 +33°C° 0.1 mm 5 m/s 608 mmHg 38%
    19:00 +29°C° 0.1 mm 4 m/s 607 mmHg 53%
    20:00 +26°C° 0.1 mm 3 m/s 607 mmHg 68%
    21:00 +25°C° 0.3 mm 3 m/s 607 mmHg 71%
    22:00 +25°C° 0.3 mm 2 m/s 607 mmHg 74%
    23:00 +24°C° 0.3 mm 2 m/s 607 mmHg 77%

    27 Julho, Sábado

    Tempo Temperatura Precipitação Vento Pressão Humidade
    00:00 +23°C° 0.1 mm 2 m/s 607 mmHg 78%
    01:00 +23°C° 0.1 mm 1 m/s 607 mmHg 79%
    02:00 +22°C° 0.1 mm 1 m/s 607 mmHg 80%
    03:00 +22°C° 0.1 mm 1 m/s 607 mmHg 80%
    04:00 +22°C° 0.1 mm 1 m/s 606 mmHg 80%
    05:00 +21°C° 0.1 mm 1 m/s 606 mmHg 80%
    06:00 +22°C° 0 mm 1 m/s 607 mmHg 74%
    07:00 +24°C° 0 mm 1 m/s 607 mmHg 68%
    08:00 +25°C° 0 mm 1 m/s 608 mmHg 62%
    09:00 +26°C° 0 mm 1 m/s 608 mmHg 52%
    10:00 +28°C° 0 mm 2 m/s 609 mmHg 42%
    11:00 +30°C° 0 mm 2 m/s 609 mmHg 31%
    12:00 +33°C° 0 mm 3 m/s 610 mmHg 27%
    13:00 +34°C° 0 mm 3 m/s 610 mmHg 23%
    14:00 +35°C° 0 mm 4 m/s 610 mmHg 19%
    15:00 +35°C° 0 mm 4 m/s 610 mmHg 21%
    16:00 +35°C° 0 mm 4 m/s 609 mmHg 23%
    17:00 +34°C° 0 mm 5 m/s 609 mmHg 26%
    18:00 +32°C° 0 mm 4 m/s 609 mmHg 32%
    19:00 +30°C° 0 mm 3 m/s 608 mmHg 39%
    20:00 +28°C° 0 mm 2 m/s 608 mmHg 46%
    21:00 +27°C° 0 mm 2 m/s 608 mmHg 50%
    22:00 +26°C° 0 mm 2 m/s 608 mmHg 54%
    23:00 +25°C° 0 mm 2 m/s 608 mmHg 59%
    Mostrar mais